Location: *
(54.5167°N, 22.5500°E)
Time: 17:55:56
(UTC+00:00)

Daily predictions for brighter satellites

Satellite Brightness Start Highest point End
(mag) Time Altitude Azimuth Time Altitude Azimuth Time Altitude Azimuth
Nadezhda 3 Rocket 4.4 16:01:42 10° SSE 16:07:35 44° E 16:13:32 10° NNE
Cosmos 1953 3.1 16:06:00 10° SSE 16:09:37 32° E 16:13:15 10° NNE
SL-24 R/B - RUBIN 2 4.0 16:05:39 10° SW 16:10:33 72° SE 16:16:09 10° NE
COBE Rocket 4.3 16:05:33 10° NNE 16:10:34 45° E 16:15:30 10° S
Cosmos 1703 4.4 16:09:00 10° N 16:12:16 24° ENE 16:15:30 10° ESE
NOAA 12 4.2 16:07:06 10° SSE 16:12:23 86° WSW 16:17:45 10° NNW
Cosmos 1934 Rocket 4.3 16:06:34 10° N 16:12:36 45° ENE 16:18:39 10° SE
COSMOS 2406 3.6 16:07:00 10° NNW 16:12:37 47° NE 16:18:10 10° ESE
Cosmos 2227 Rocket 4.1 16:08:16 10° W 16:12:57 25° NNW 16:17:39 10° NNE
Cosmos 1455 Rocket 4.4 16:09:14 10° SW 16:13:31 45° WNW 16:17:49 10° N
Cosmos 1758 3.4 16:10:28 10° S 16:14:21 54° E 16:18:15 10° NNE
CZ-4B R/B 4.4 16:13:33 10° NW 16:14:42 12° WNW 16:15:50 10° W
Cosmos 2082 Rocket 3.3 16:12:14 10° NNW 16:17:07 27° NNE 16:21:57 10° E
Cosmos 1626 2.4 16:14:08 10° NNW 16:17:53 76° W 16:21:36 10° S
Cosmos 1184 Rocket 3.6 16:14:42 10° SSW 16:17:59 56° WNW 16:21:17 10° N
Cosmos 2228 3.8 16:14:32 10° SSE 16:18:24 31° E 16:22:16 10° NNE
H-2A R/B 3.8 16:15:05 10° S 16:18:53 52° W 16:22:45 10° NNW
Cosmos 2297 Rocket 4.1 16:14:42 10° W 16:19:13 24° NNW 16:23:43 10° NNE
Cosmos 371 Rocket 3.3 16:15:22 10° SSW 16:20:12 88° WNW 16:25:03 10° NNE
Envisat 3.0 16:16:23 10° SSE 16:21:28 89° E 16:26:36 10° NNW
COSMO-SKYMED 1 2.9 16:19:16 10° NNE 16:23:26 43° E 16:27:35 10° S
FengYun 1-2 T 4.3 16:19:07 10° SSE 16:24:46 80° ENE 16:30:25 10° NNW
Cosmos 304 Rocket 3.9 16:21:49 10° S 16:26:30 55° ESE 16:31:13 10° NNE
ATLAS CENTAUR R/B 3.3 16:24:54 10° WNW 16:29:08 28° NNW 16:33:12 10° NE
Cosmos 1726 3.4 16:27:47 10° SE 16:30:31 20° E 16:33:18 10° NE
Cosmos 921 Rocket 4.2 16:26:59 10° SSE 16:30:33 23° E 16:34:07 10° NE
Cosmos 1939 Rocket 3.4 16:28:00 10° SE 16:31:40 37° ENE 16:35:25 10° N
CSL-04 Debris 4.2 16:27:33 10° SSE 16:33:00 77° ENE 16:38:30 10° NNW
Cosmos 1825 Rocket 3.7 16:31:59 10° NNW 16:36:21 82° WSW 16:40:43 10° S
Cosmos 1953 Rocket 3.5 16:32:24 10° N 16:36:51 74° ENE 16:41:12 10° SSE
Lacrosse 5 rocket 2.1 16:33:40 10° WNW 16:37:13 44° SW 16:40:57 10° SE
SJ 16-02 3.5 16:37:45 10° NNE 16:38:51 11° NNE 16:39:57 10° NE
USA 116 3.8 16:37:02 10° NNE 16:39:52 31° E 16:42:45 10° SSE
Cosmos 1354 Rocket 4.3 16:36:33 10° NNW 16:41:49 75° WSW 16:47:01 10° SSE
Meteor 1-16 Rocket 4.4 16:41:31 10° SSE 16:46:47 45° E 16:51:56 10° NNE
Cosmos 2285 Rocket 4.5 16:40:23 10° NNW 16:46:48 68° WSW 16:53:09 10° SSE
SKYMED 3 4.5 16:43:08 10° NNE 16:47:30 70° ESE 16:51:51 10° S
CZ-4 R/B 1.8 16:44:20 10° S 16:48:29 69° WSW 16:52:43 10° NNW
Cosmos 1844 Rocket 2.9 16:44:34 10° S 16:50:00 50° ESE 16:55:27 10° NE
FALCON 9 DEB 3.2 16:47:21 10° WSW 16:50:48 68° S 16:53:02 20° E
Unknown 3.3 16:47:47 10° WSW 16:51:17 67° S 16:53:31 21° E
Cosmos 1242 Rocket 2.5 16:47:43 10° N 16:51:25 65° ENE 16:55:05 10° SSE
Cosmos 1328 3.8 16:47:51 10° N 16:51:51 60° ENE 16:55:47 10° SSE
Unknown 3.9 16:51:32 10° SW 16:55:16 45° SSE 16:57:31 21° E
Cosmos 1606 Rocket 3.5 16:51:27 10° S 16:55:50 76° E 17:00:13 10° NNE
Cosmos 968 Rocket 4.4 16:52:48 10° NW 16:57:56 52° WSW 17:03:02 10° S
ASTEX 1 3.3 16:53:10 10° N 16:58:08 83° E 17:03:06 10° S
Unknown 3.6 16:56:30 10° W 16:58:59 35° SSW 17:00:24 20° SE
Cosmos 1470 3.6 16:55:42 10° SSW 16:59:37 56° WNW 17:03:34 10° N
Unknown 3.7 16:56:23 10° WSW 17:00:07 51° SSE 17:02:12 23° E
Cosmos 1908 4.0 16:56:43 10° SSE 17:00:09 30° E 17:03:35 10° NNE
Cosmos 1302 Rocket 4.5 16:56:27 10° SW 17:01:38 64° WNW 17:06:52 10° NNE
Meteor 2-10 4.2 16:57:20 10° SSE 17:02:09 44° E 17:06:56 10° NNE
Unknown 3.5 16:58:41 10° WSW 17:02:22 59° SSE 17:04:20 25° E
SPOT 3 Rocket 4.2 16:59:11 16° ESE 17:02:43 35° ENE 17:07:24 10° N
Cosmos 2278 Rocket 3.3 16:59:43 10° SE 17:03:44 20° E 17:04:31 20° E
Unknown 4.5 17:00:06 10° SW 17:03:50 33° SSE 17:05:34 23° ESE
Ariane Rocket 2.9 16:58:57 10° SSE 17:04:01 71° ENE 17:09:08 10° NNW
Cosmos 1932 4.5 16:58:50 10° SSW 17:05:02 64° SE 17:11:24 10° NE
Unknown 4.5 17:01:44 10° SW 17:05:28 33° SSE 17:07:09 24° ESE
Cosmos 1844 3.8 17:00:34 10° S 17:06:05 53° ESE 17:11:43 10° NE
Unknown 3.1 17:03:18 10° W 17:06:43 69° S 17:08:17 29° ESE
Unknown 4.4 17:03:23 10° SW 17:07:09 34° SSE 17:08:46 25° ESE
Unknown 4.4 17:06:39 10° SW 17:10:26 35° SSE 17:11:58 26° ESE
CZ-4C R/B 4.3 17:04:18 10° WNW 17:10:47 39° WSW 17:18:06 10° S
Cosmos 2058 4.0 17:08:01 10° N 17:11:31 24° ENE 17:12:00 24° ENE
SKYMED 2 3.8 17:07:12 10° NNE 17:11:34 73° WNW 17:15:54 10° SSW
Cosmos 839 Rocket 4.2 17:05:32 10° NW 17:11:42 74° SW 17:18:21 10° SSE
Unknown 4.3 17:08:21 10° SW 17:12:11 37° SSE 17:13:40 27° ESE
Unknown 4.3 17:08:30 10° SW 17:12:21 38° SSE 17:13:54 27° ESE
YAOGAN 6 4.2 17:10:09 10° SSW 17:13:36 38° W 17:17:04 10° NNW
Unknown 4.3 17:10:05 10° SW 17:13:57 39° SSE 17:15:26 28° ESE
Falcon 9 debris 3.2 17:10:39 10° W 17:14:06 69° S 17:15:25 34° ESE
Cosmos 1992 Rocket 3.9 17:09:42 10° SSW 17:14:55 77° ESE 17:20:10 10° NNE
Unknown 3.2 17:11:39 10° W 17:15:08 70° S 17:16:29 35° ESE
Unknown 4.3 17:13:09 10° SW 17:16:59 38° SSE 17:18:18 29° ESE
Cosmos 1777 Rocket 3.9 17:13:19 10° NNW 17:18:36 80° ENE 17:23:20 13° SSE
Unknown 4.2 17:16:26 10° SW 17:20:19 39° SSE 17:21:30 31° ESE
H-2A R/B 2.6 17:19:01 23° ESE 17:21:45 41° ENE 17:26:47 10° N
ATLAS 5 CENTAUR R/B 1.6 17:17:28 10° SW 17:21:50 76° SE 17:25:35 17° NE
Unknown 4.2 17:18:09 10° SW 17:22:02 40° SSE 17:23:10 32° ESE
YAOGAN 1 3.8 17:18:17 10° S 17:22:26 43° W 17:26:36 10° NNW
Unknown 4.2 17:19:44 10° SW 17:23:37 40° SSE 17:24:42 33° ESE
SJ-11-01 4.3 17:21:10 16° SE 17:24:50 59° ENE 17:29:28 10° N
Unknown 4.2 17:21:25 10° SW 17:25:20 41° SSE 17:26:21 34° ESE
Unknown 3.5 17:25:53 10° W 17:28:54 46° SSW 17:29:30 39° SSE
NOSS 3-3 (A) 4.5 17:21:56 10° NW 17:29:03 70° NNE 17:33:56 26° ESE
SL-4 R/B 4.3 17:26:39 10° WSW 17:29:04 16° SW 17:31:22 10° S
NOSS 3-3 (C) 4.5 17:22:02 10° NW 17:29:09 69° NNE 17:34:01 26° ESE
Gbstr 26 Del rocket 4.2 17:24:41 10° W 17:30:43 67° S 17:34:52 27° ESE
Unknown 4.0 17:27:56 10° SW 17:31:51 45° SSE 17:32:40 39° ESE
CZ-2C R/B 4.0 17:29:50 28° E 17:31:52 36° ENE 17:37:07 10° N
Unknown 4.1 17:27:59 10° SW 17:31:55 43° SSE 17:32:43 38° SE
Unknown 4.0 17:29:36 10° SW 17:33:33 44° SSE 17:34:17 40° SE
USA 186 3.0 17:35:00 25° NNE 17:35:00 25° NNE 17:36:21 10° N
Cosmos 1339 Rocket 4.3 17:28:46 10° S 17:34:47 67° E 17:40:53 10° NNE
Unknown 4.0 17:31:17 10° SW 17:35:15 45° SSE 17:35:55 41° SE
Cosmos 2263 Rocket 3.8 17:30:13 10° WSW 17:35:20 34° NW 17:40:28 10° NNE
CZ-2D R/B 4.2 17:32:38 10° S 17:36:22 48° W 17:40:08 10° NNW
Cosmos 1076 Rocket 3.7 17:32:34 10° N 17:36:52 51° ENE 17:38:01 40° ESE
Unknown 4.0 17:32:55 10° SW 17:36:53 45° SSE 17:37:30 42° SE
Cosmos 2084 Rocket 3.9 17:33:20 10° NW 17:37:41 50° NNE 17:38:51 39° ENE
Cosmos 1461 2.7 17:34:27 10° NW 17:38:29 73° NE 17:39:33 47° ESE
Unknown 3.9 17:34:32 10° SW 17:38:30 46° SSE 17:39:04 43° SE
Cosmos 1726 Rocket 4.3 17:34:17 10° SSW 17:38:37 55° WNW 17:42:56 10° N
HJ-1C 3.8 17:37:06 15° S 17:39:50 63° WSW 17:43:13 10° NNW
Cosmos 1605 Rocket 4.1 17:35:11 10° NNW 17:41:27 76° W 17:47:35 10° S
Unknown 3.9 17:37:54 10° SW 17:41:53 47° SSE 17:42:20 45° SE
FREGAT/IRIS 2.6 17:43:06 66° NNW 17:43:06 66° NNW 17:45:36 10° NNW
BREEZE M DEB (TANK) 4.1 17:40:31 10° WSW 17:42:46 21° S 17:44:18 18° SSE
Cosmos 724 4.5 17:37:14 10° SW 17:43:22 76° NW 17:49:13 11° NE
Starlink (trailer) 3.9 17:39:31 10° SW 17:43:31 48° SSE 17:43:54 46° SE
Cosmos 1459 Rocket 4.1 17:38:38 10° N 17:44:41 53° ENE 17:47:40 30° SE
Unknown 3.9 17:41:12 10° SW 17:45:12 49° SSE 17:45:31 47° SE
Cosmos 2058 Rocket 3.4 17:41:25 10° SSW 17:45:45 67° WNW 17:50:07 10° N
Cosmos 1953 4.2 17:42:19 10° SW 17:46:01 32° WNW 17:49:44 10° N
Lacrosse 5 1.8 17:41:12 10° WNW 17:46:18 89° SSW 17:47:59 43° ESE
Unknown 3.6 17:42:29 10° WSW 17:46:27 55° SSE 17:46:49 53° SE
Cosmos 1833 Rocket 2.6 17:40:59 10° NNW 17:46:39 90° E 17:49:44 28° SSE
Unknown 3.8 17:42:48 10° SW 17:46:49 49° SSE 17:47:05 48° SE
SJ-6B 2.6 17:49:21 62° ESE 17:49:48 71° ENE 17:53:37 10° N
Cosmos 1802 Rocket 4.2 17:45:21 10° N 17:51:39 52° ENE 17:54:04 35° SE
Cosmos 1727 Rocket 3.9 17:45:41 10° S 17:51:46 64° E 17:57:53 10° NNE
Unknown 3.8 17:49:24 10° WSW 17:53:26 52° SSE 17:53:27 52° SSE
Unknown 3.8 17:49:28 10° WSW 17:53:30 52° SSE 17:53:32 52° SSE
Unknown 3.8 17:50:15 10° WSW 17:54:18 52° SSE 17:54:18 52° SSE
ARGOS 3.1 17:52:56 37° SE 17:55:03 64° ENE 18:00:27 10° NNW
MOS 1 4.5 17:50:14 10° S 17:55:54 72° WSW 18:01:35 10° NNW
COSMOS 2406 4.2 17:51:29 10° NW 17:56:58 45° WSW 18:02:24 10° S
Resurs 01 Rocket 2.3 17:58:05 38° NE 17:58:05 38° NE 18:01:44 10° N
Unknown 3.8 17:54:22 10° WSW 17:58:16 54° S 17:58:16 54° S
Unknown 3.8 17:54:23 10° WSW 17:58:16 54° S 17:58:16 54° S
Cosmos 1898 Rocket 3.8 17:54:13 10° NNW 17:59:17 46° NE 17:59:52 44° ENE
Unknown 3.8 17:56:07 10° WSW 17:59:59 55° S 17:59:59 55° S
Cosmos 2082 Rocket 2.1 17:56:15 10° NNW 18:02:02 85° ENE 18:04:05 42° SE
Unknown 3.8 17:59:24 10° WSW 18:03:09 55° S 18:03:09 55° S
Unknown 3.9 18:00:03 10° WSW 18:03:45 54° S 18:03:45 54° S
Cosmos 2173 Rocket 3.9 17:57:52 10° N 18:04:13 71° ENE 18:07:03 34° SSE
SL-08 RB Rocket 3.8 18:04:50 55° ENE 18:04:50 55° ENE 18:09:13 10° N
Unknown 3.9 18:01:00 10° WSW 18:04:41 54° S 18:04:41 54° S
Cosmos 2297 Rocket 4.5 18:02:13 10° NW 18:05:25 15° N 18:08:38 10° NNE
Cosmos 1726 3.3 18:02:02 10° SW 18:05:31 41° WNW 18:09:02 10° N
Unknown 4.0 18:04:12 10° WSW 18:07:45 52° SSW 18:07:45 52° SSW
Cosmos 921 Rocket 3.7 18:04:06 10° SW 18:08:32 56° WNW 18:12:58 10° NNE
Cosmos 292 Rocket 3.6 18:04:12 10° SSW 18:08:58 90° NW 18:13:45 10° NNE
ATLAS CENTAUR R/B 3.2 18:05:28 10° NW 18:09:22 24° N 18:10:28 22° NNE
Okean 3 Rocket 4.0 18:06:33 10° N 18:10:24 50° NE 18:10:24 50° NE
Unknown 4.0 18:07:35 10° WSW 18:11:03 52° SSW 18:11:03 52° SSW
Unknown 4.1 18:09:15 10° WSW 18:12:38 51° SSW 18:12:38 51° SSW
Unknown 4.1 18:10:56 10° WSW 18:14:17 50° SSW 18:14:17 50° SSW
Lacrosse 5 rocket 4.1 18:14:54 10° WSW 18:15:37 10° SW 18:16:20 10° SW
Unknown 4.2 18:12:35 10° WSW 18:15:52 49° SW 18:15:52 49° SW
SJ 16-02 2.4 18:14:34 10° NNW 18:17:38 33° NNE 18:17:38 33° NNE
Cosmos 1725 Rocket 4.0 18:13:24 10° N 18:19:33 55° ENE 18:20:08 53° E
Unknown 4.3 18:15:52 10° WSW 18:19:02 47° SW 18:19:02 47° SW
Cosmos 2151 4.0 18:15:48 10° N 18:18:35 35° NNE 18:18:35 35° NNE
Cosmos 2100 Rocket 3.9 18:13:47 10° NNW 18:20:04 89° WSW 18:23:03 33° S
Unknown 4.3 18:17:35 10° WSW 18:20:42 46° SW 18:20:42 46° SW
CZ-2C R/B 4.1 18:17:21 10° NNE 18:20:43 50° NNE 18:20:43 50° NNE
Unknown 4.4 18:19:12 10° WSW 18:22:15 45° SW 18:22:15 45° SW
Cosmos 2084 3.6 18:19:30 10° WSW 18:24:00 75° NW 18:24:06 74° NNW
Resurs 1-3 3.7 18:24:46 66° N 18:24:46 66° N 18:28:38 10° NNW
Unknown 4.5 18:20:48 10° WSW 18:23:47 43° SW 18:23:47 43° SW
Unknown 4.5 18:21:27 10° WSW 18:24:25 43° SW 18:24:25 43° SW
Cosmos 2233 Rocket 4.4 18:21:31 10° N 18:27:07 43° ENE 18:27:07 43° ENE
ADEOS Rocket 3.4 18:20:45 10° NNE 18:28:36 71° ESE 18:36:04 10° S
Cosmos 1000 Rocket 4.4 18:28:05 58° SE 18:29:00 66° E 18:35:13 10° NNE
In-Cosmos 22 Rocket 4.0 18:27:13 10° NNW 18:32:36 85° WSW 18:33:20 67° S
Cosmos 1844 Rocket 3.8 18:28:41 10° WSW 18:34:03 43° NW 18:39:26 10° NNE
SPOT 3 Rocket 4.3 18:39:51 31° SSW 18:42:00 49° W 18:47:04 10° NNW
Cosmos 2278 Rocket 2.1 18:41:24 10° SSW 18:54:04 - NNE 18:46:34 75° SSW
Cosmos 2016 Rocket 3.9 18:40:53 10° NNW 18:47:08 87° W 18:48:08 66° S
Cosmos 2058 4.0 18:44:37 10° NNW 18:48:12 45° WNW 18:48:12 45° WNW
Cosmos 2061 Rocket 4.0 18:42:45 10° NNW 18:49:05 81° W 18:50:16 61° S
SL-08 R/B 4.3 18:44:32 10° N 18:50:46 87° E 18:51:02 82° SE
Cosmos 1812 Rocket 4.4 18:51:35 49° WNW 18:51:35 49° WNW 18:55:43 10° N
GEOS 3 Rocket 4.1 19:00:00 50° N 19:00:00 50° N 19:04:20 10° NW
H-2A R/B 3.1 18:59:39 34° SW 19:01:11 42° W 19:06:19 10° NNW
SPOT 5 4.5 19:03:49 29° NNE 19:03:49 29° NNE 19:06:48 10° N
Cosmos 1937 Rocket 4.0 18:57:11 10° NNW 19:01:14 56° NNW 19:01:14 56° NNW
MetOp-A 4.4 19:02:53 63° W 19:02:53 63° W 19:08:12 10° NNW
Terra 3.9 19:07:45 18° NNE 19:07:45 18° NNE 19:09:16 10° N
ATLAS 5 CENTAUR R/B 3.0 19:02:32 10° W 19:06:54 39° NNW 19:07:08 39° NNW
CZ-2C R/B 3.8 19:10:54 52° WSW 19:11:32 55° W 19:17:16 10° NNW
Spot 2 Rocket 4.4 19:18:16 45° NNW 19:18:16 45° NNW 19:21:47 10° NNW
Lacrosse 5 3.6 19:24:23 10° WNW 19:27:11 26° W 19:27:11 26° W
Resurs 01 Rocket 3.7 19:35:40 26° WNW 19:35:40 26° WNW 19:38:11 10° NNW
Cosmos 2227 Rocket 4.2 19:41:23 10° NNW 19:45:05 20° NNE 19:45:05 20° NNE
Cosmos 2082 Rocket 4.1 19:41:11 10° NW 19:45:29 22° WSW 19:45:57 22° WSW
ATLAS CENTAUR R/B 4.0 19:44:55 10° NW 19:46:39 21° NNW 19:46:39 21° NNW
Cosmos 2297 Rocket 4.2 19:47:30 10° NNW 19:50:58 20° NNE 19:50:58 20° NNE
SJ 16-02 4.0 19:53:19 10° NW 19:54:38 18° NW 19:54:38 18° NW
Cosmos 2278 Rocket 4.5 20:27:01 10° W 20:35:55 14° NNE 20:36:49 10° NNE
CENTAUR R/B 4.3 22:35:50 31° NE 22:35:50 31° NE 22:40:03 10° ENE
Cosmos 2344 4.4 22:45:21 48° NNE 22:45:21 48° NNE 22:52:10 10° NE
Cosmos 1980 Rocket 4.4 23:43:57 20° NE 23:43:57 20° NE 23:45:52 10° NE
